Flag for Germany Weather past 2 weeks in Warburg, North Rhine-Westphalia, Germany

48 °F

Light rain. Mostly cloudy.

Feels Like: 41 °F
Forecast: 40 / 50 °F
Wind: 21 mph from Southwest

Location: Kassel / Calden

Current Time: Nov 29, 2015 at 11:14:14 PM

Latest Report: Nov 29, 2015 at 7:50 PM

Visibility: 6 mi

Pressure: 29.71 "Hg

Humidity: 87%

Dew point: 45 °F

Location of WarburgLocation

Historic Weather in Warburg — Graph


Warburg temperature yesterday

Maximum temperature yesterday: 43 °F (at 1:50 PM)
Minimum temperature yesterday: 34 °F (at 7:20 AM)
Average temperature yesterday: 38 °F

Past Weeks' High & Low Weather Summary

High57 °F (Nov 15, 12:20 PM)100% (Nov 14, 7:20 PM)30.24 "Hg (Nov 14, 7:20 PM)
Low30 °F (Nov 27, 7:20 AM)51% (Nov 27, 3:50 PM)29.39 "Hg (Nov 21, 7:50 AM)
Average43 °F86%29.84 "Hg
* Reported Nov 14 7:20 PM — Nov 29 7:50 PM, Warburg, Weather by CustomWeather, © 2015

Note: Actual official high and low records may vary slightly from our data, if they occured in-between our weather recording intervals... More about our weather records


Warburg weather history for previous 24 hours

Time TempWeatherWind HumidityBarometerVisibility
7:50 PM
Sun, Nov 29
48 °FLight rain. Mostly cloudy.21 mph87%29.71 "Hg6 mi
7:20 PM48 °FLight rain. Mostly cloudy.20 mph87%29.71 "Hg6 mi
6:50 PM48 °FLight rain. Overcast.16 mph87%29.71 "Hg6 mi
6:20 PM48 °FLight rain. Mostly cloudy.15 mph87%29.74 "Hg6 mi
5:50 PM48 °FLight rain. Mostly cloudy.18 mph82%29.74 "Hg5 mi
5:20 PM48 °FLight rain. Mostly cloudy.18 mph82%29.74 "Hg4 mi
4:50 PM46 °FLight rain. Overcast.16 mph93%29.74 "Hg4 mi
4:20 PM46 °FLight rain. Mostly cloudy.14 mph93%29.74 "Hg6 mi
3:50 PM46 °FLight rain. Mostly cloudy.13 mph93%29.74 "Hg6 mi
3:20 PM46 °FLight rain. Partly sunny.15 mph87%29.74 "Hg6 mi
2:50 PM46 °FBroken clouds.14 mph87%29.77 "HgN/A
2:20 PM46 °FPartly sunny.14 mph87%29.77 "HgN/A
1:50 PM46 °FPartly sunny.13 mph87%29.77 "HgN/A
1:20 PM46 °FPartly sunny.15 mph87%29.77 "HgN/A
12:50 PM45 °FBroken clouds.15 mph93%29.77 "HgN/A
12:20 PM45 °FLight rain. Partly sunny.14 mph93%29.80 "HgN/A
11:50 AM43 °FLight rain. Broken clouds.13 mph100%29.80 "Hg5 mi
11:20 AM43 °FLight rain. Broken clouds.13 mph93%29.80 "HgN/A
10:20 AM43 °FDrizzle. Partly sunny.17 mph93%29.80 "HgN/A
9:50 AM43 °FDrizzle. Partly sunny.16 mph93%29.80 "HgN/A
8:50 AM41 °FDrizzle. Partly sunny.14 mph93%29.80 "HgN/A
7:20 AM39 °FLight rain. Partly cloudy.14 mph93%29.80 "HgN/A
Weather by CustomWeather, © 2015

See weather overviewHow to use our weather pages